Location: Arcones
(41.1182°N, 3.7238°W)
Time: 20:56:30
(UTC+00:00)

Cosmos 2058 Rocket - Pass Details

Date: 11 December 2025
Orbit: 604 x 633 km, 82.5° (Epoch: 12 January)

Event Time Altitude Azimuth Distance (km) Brightness Sun altitude
Rises 17:41:33 0° 156° (SSE) 2,909 6.5 -10.2°
Reaches altitude 10° 17:44:04 10° 144° (SE) 2,009 5.5 -10.6°
Maximum altitude 17:47:42 25° 89° (E) 1,278 4.1 -11.3°
Enters shadow 17:50:56 12° 37° (NE) 1,881 5.0 -11.8°
